Weather reports worldwide

Advertisment
Koksijde, Belgium (6400): temperature & dewpoint: 20.10.2020 11:00:00 - 26.10.2020 11:00:00 (CET)Koksijde, Belgium (6400): wind speed & gusts: 20.10.2020 11:00:00 - 26.10.2020 11:00:00 (CET)Koksijde, Belgium (6400): wind direction: 20.10.2020 11:00:00 - 26.10.2020 11:00:00 (CET)Koksijde, Belgium (6400): reduced air pressure: 20.10.2020 11:00:00 - 26.10.2020 11:00:00 (CET)Koksijde, Belgium (6400): visibility: 20.10.2020 11:00:00 - 26.10.2020 11:00:00 (CET)
Date & Time tt [°C] td [°C] ff [km/h] ff [kn] fx [km/h] fx [kn] dd ppp [hPa] vv [km]
26.10.2020 11:00:00 9,0 7,0 29 16 - - SSW - 9
26.10.2020 10:00:00 8,9 7,0 29 16 - - SSW 999,9 12
26.10.2020 09:00:00 8,1 6,8 25 14 36 19 S 999,7 10
26.10.2020 08:00:00 7,7 6,5 14 8 22 12 S 999,2 10
26.10.2020 07:00:00 7,6 6,4 14 8 - - S 999,1 8
26.10.2020 06:00:00 7,8 6,4 11 6 29 16 SW 998,7 10
26.10.2020 05:00:00 7,8 6,5 18 10 29 16 SSW 998,3 20
26.10.2020 04:00:00 8,0 6,8 14 8 - - S 998,7 20
26.10.2020 03:00:00 7,9 6,8 14 8 22 12 SSW 998,5 20
26.10.2020 02:00:00 8,1 6,8 14 8 22 12 SW 999,3 18
26.10.2020 01:00:00 7,5 6,2 14 8 - - S 999,5 20
26.10.2020 00:00:00 8,3 6,6 11 6 22 12 SSW 999,3 20
25.10.2020 23:00:00 8,5 6,5 14 8 18 10 S 999,6 20
25.10.2020 22:00:00 8,5 6,3 14 8 - - SSW 999,5 20
25.10.2020 21:00:00 9,3 6,6 14 8 25 14 SSW 999,5 20
25.10.2020 20:00:00 10,2 8,3 14 8 22 12 S 999,5 20
25.10.2020 19:00:00 10,1 8,4 11 6 - - S 999,7 20
25.10.2020 18:00:00 10,1 9,1 11 6 14 8 SSE 999,7 10
25.10.2020 17:00:00 9,8 8,4 9 5 25 14 WSW 999,6 10
25.10.2020 16:00:00 11,0 8,6 11 6 - - W 999,4 8
25.10.2020 15:00:00 13,1 9,3 22 12 40 21 S 998,8 20
25.10.2020 14:00:00 13,2 9,3 22 12 32 18 SSW 999,6 20
25.10.2020 13:00:00 13,2 9,7 22 12 - - SSW 1000,2 20
25.10.2020 12:00:00 12,5 10,2 14 8 22 12 SSW 1000,3 20
25.10.2020 11:00:00 11,6 9,8 14 8 25 14 S 1000,7 20
25.10.2020 10:00:00 11,3 9,5 18 10 - - SSW 1000,2 10
25.10.2020 09:00:00 11,1 9,4 15 8 25 14 S 1000,1 10
25.10.2020 08:00:00 10,8 9,9 18 10 25 14 S 1000,1 20
25.10.2020 07:00:00 10,6 9,6 16 9 - - SSW 999,5 10
25.10.2020 06:00:00 11,3 9,8 18 10 36 19 SW 1000,2 20
25.10.2020 05:00:00 11,5 10,1 25 14 40 21 S 999,5 11
25.10.2020 04:00:00 12,0 9,7 32 18 - - SW 999,3 19
25.10.2020 03:00:00 14,0 10,5 31 17 68 37 SSW 999,3 6
25.10.2020 02:00:00 14,9 11,1 36 19 50 27 SSW 999,4 20
25.10.2020 01:00:00 - - - - - - - - -
25.10.2020 00:00:00 15,8 11,5 36 19 61 33 S 999,9 20
24.10.2020 23:00:00 15,8 12,0 40 21 61 33 S 1000,3 20
24.10.2020 22:00:00 15,8 12,2 36 19 - - S 1000,7 20
24.10.2020 21:00:00 16,0 12,4 36 19 50 27 S 1001,6 20
24.10.2020 20:00:00 16,0 12,7 36 19 50 27 S 1002,3 20
24.10.2020 19:00:00 15,8 12,7 36 19 - - S 1003,1 20
24.10.2020 18:00:00 15,7 12,5 29 16 47 25 S 1003,7 20
24.10.2020 17:00:00 15,6 12,7 25 14 40 21 S 1004,8 20
24.10.2020 16:00:00 16,0 12,6 25 14 - - S 1005,8 20
24.10.2020 15:00:00 15,7 12,7 22 12 40 21 SSW 1006,7 20
24.10.2020 14:00:00 15,6 11,6 25 14 47 25 SSW 1007,3 20
24.10.2020 13:00:00 15,2 12,1 29 16 - - SSW 1008,1 20
24.10.2020 12:00:00 14,3 12,0 29 16 47 25 SSW 1008,8 5
24.10.2020 11:00:00 14,1 11,3 25 14 40 21 S 1009,2 20
24.10.2020 10:00:00 13,1 10,6 25 14 - - SSW 1009,7 20
24.10.2020 09:00:00 12,4 10,9 18 10 29 16 SSW 1009,8 20
24.10.2020 08:00:00 11,9 11,1 18 10 32 18 S 1009,8 20
24.10.2020 07:00:00 11,8 10,9 22 12 - - S 1009,7 20
24.10.2020 06:00:00 11,8 10,7 18 10 25 14 S 1010,0 20
24.10.2020 05:00:00 11,5 10,8 11 6 25 14 SSW 1010,5 20
24.10.2020 04:00:00 11,3 10,5 11 6 - - S 1010,8 20
24.10.2020 03:00:00 11,6 9,5 14 8 22 12 SSW 1011,5 20
24.10.2020 02:00:00 11,7 10,7 11 6 18 10 SSW 1011,7 20
24.10.2020 01:00:00 11,3 10,3 14 8 - - WSW 1011,6 20
24.10.2020 00:00:00 11,6 10,9 22 12 29 16 SSW 1011,5 20
23.10.2020 23:00:00 12,2 10,0 18 10 22 12 SW 1011,6 17
23.10.2020 22:00:00 12,1 9,7 11 6 - - SSW 1011,2 20
23.10.2020 21:00:00 12,1 9,9 14 8 29 16 SW 1010,7 20
23.10.2020 20:00:00 13,4 10,6 18 10 32 18 WSW 1010,7 20
23.10.2020 19:00:00 13,9 11,7 18 10 - - WSW 1010,2 20
23.10.2020 18:00:00 14,0 11,1 18 10 29 16 SW 1009,6 20
23.10.2020 17:00:00 14,8 11,0 22 12 36 19 SW 1009,2 20
23.10.2020 16:00:00 16,0 10,9 18 10 - - SW 1009,2 20
23.10.2020 15:00:00 16,2 11,2 22 12 32 18 SW 1009,1 20
23.10.2020 14:00:00 16,6 11,6 25 14 32 18 SW 1009,2 20
23.10.2020 13:00:00 16,2 12,2 24 13 - - SW 1009,3 10
23.10.2020 12:00:00 15,3 12,8 18 10 25 14 SSW 1009,6 18
23.10.2020 11:00:00 13,7 12,6 14 8 22 12 SSW 1009,8 15
23.10.2020 10:00:00 11,6 11,5 7 4 - - SSW 1010,0 5
23.10.2020 09:00:00 10,1 10,1 4 2 11 6 N 1010,1 1,2
23.10.2020 08:00:00 8,9 8,9 9 5 11 6 SE 1010,0 1,2
23.10.2020 07:00:00 8,0 8,0 4 2 - - N 1009,6 0,3
23.10.2020 06:00:00 8,3 8,3 4 2 7 4 N 1010,0 0,7
23.10.2020 05:00:00 7,8 7,6 4 2 7 4 - 1010,2 2,0
23.10.2020 04:00:00 9,3 8,8 4 2 - - N 1010,6 8
23.10.2020 03:00:00 9,5 9,2 4 2 7 4 N 1011,2 6
23.10.2020 02:00:00 10,1 9,7 4 2 7 4 - 1011,7 10
23.10.2020 01:00:00 9,4 9,3 4 2 - - N 1011,8 9
23.10.2020 00:00:00 9,4 9,1 4 2 11 6 N 1011,8 9
22.10.2020 23:00:00 8,7 8,2 5 3 7 4 SSW 1012,0 10
22.10.2020 22:00:00 10,1 9,3 7 4 - - SW 1012,0 19
22.10.2020 21:00:00 10,9 9,7 7 4 11 6 SW 1011,7 20
22.10.2020 20:00:00 10,6 9,3 7 4 11 6 SSW 1011,7 13
22.10.2020 19:00:00 12,0 10,1 4 2 - - N 1011,7 20
22.10.2020 18:00:00 13,3 11,0 11 6 22 12 SW 1011,2 20
22.10.2020 17:00:00 15,0 11,1 14 8 29 16 SW 1010,7 20
22.10.2020 16:00:00 16,1 11,5 22 12 - - SW 1010,5 20
22.10.2020 15:00:00 15,6 11,0 22 12 32 18 SW 1010,2 15
22.10.2020 14:00:00 15,7 11,6 22 12 29 16 SSW 1010,3 15
22.10.2020 13:00:00 15,4 12,1 22 12 - - SSW 1010,6 15
22.10.2020 12:00:00 13,9 11,6 18 10 29 16 SSW 1011,0 6
22.10.2020 11:00:00 13,4 11,2 14 8 25 14 SSW 1010,6 15
22.10.2020 10:00:00 12,2 10,7 14 8 - - SSW 1010,7 15
22.10.2020 09:00:00 10,8 9,7 14 8 22 12 SSW 1010,3 15
22.10.2020 08:00:00 10,3 9,3 11 6 18 10 S 1009,5 15
22.10.2020 07:00:00 10,7 9,7 11 6 - - SSW 1008,7 15
22.10.2020 06:00:00 11,2 10,1 18 10 29 16 SSW 1008,7 10
22.10.2020 05:00:00 11,6 10,5 18 10 29 16 SSW 1008,3 20
22.10.2020 04:00:00 12,1 10,8 18 10 - - SSW 1008,3 20
22.10.2020 03:00:00 12,5 11,2 14 8 25 14 SW 1007,7 20
22.10.2020 02:00:00 13,1 11,8 18 10 22 12 SSW 1007,7 20
22.10.2020 01:00:00 13,1 12,1 11 6 - - SSW 1007,2 20
22.10.2020 00:00:00 13,4 12,3 14 8 25 14 SSW 1006,7 20
21.10.2020 23:00:00 13,7 12,6 18 10 25 14 SSW 1006,2 20
21.10.2020 22:00:00 14,0 13,0 18 10 - - SSW - 10
21.10.2020 21:00:00 - - - - - - - - -
21.10.2020 20:00:00 - - - - - - - - -
21.10.2020 19:00:00 15,1 13,2 29 16 - - WSW 1003,0 20
21.10.2020 18:00:00 15,3 13,1 36 19 68 37 SW 1001,1 20
21.10.2020 17:00:00 15,8 14,2 43 23 65 35 SW 999,6 11
21.10.2020 16:00:00 18,2 12,7 40 21 - - SW 997,9 20
21.10.2020 15:00:00 18,0 14,1 41 22 58 31 SSW 997,2 10
21.10.2020 14:00:00 17,5 14,8 42 23 61 33 SSW 996,1 6
21.10.2020 13:00:00 19,0 13,8 43 23 - - SSW 994,9 15
21.10.2020 12:00:00 18,2 13,3 40 21 68 37 S 994,3 15
21.10.2020 11:00:00 16,7 12,5 36 19 50 27 S 994,7 15
21.10.2020 10:00:00 14,1 12,2 29 16 - - SSE 995,8 15
21.10.2020 09:00:00 13,1 12,3 29 16 43 23 SSE 997,6 7
21.10.2020 08:00:00 13,1 12,2 29 16 43 23 SSE 998,0 9
21.10.2020 07:00:00 13,1 12,3 25 14 - - SSE 998,5 9
21.10.2020 06:00:00 13,1 12,6 22 12 32 18 SSE 999,4 6
21.10.2020 05:00:00 13,3 12,9 18 10 25 14 SSE 1000,3 4,8
21.10.2020 04:00:00 13,6 12,9 21 11 - - SSE 1001,2 10
21.10.2020 03:00:00 13,6 12,9 18 10 32 18 SSE 1001,7 11
21.10.2020 02:00:00 14,0 12,9 22 12 29 16 S 1002,7 20
21.10.2020 01:00:00 14,3 12,9 18 10 - - S 1003,2 19
21.10.2020 00:00:00 14,6 12,7 18 10 29 16 S 1003,7 20
20.10.2020 23:00:00 14,5 12,7 18 10 29 16 S 1004,2 20
20.10.2020 22:00:00 14,5 12,6 18 10 - - S 1004,5 20
20.10.2020 21:00:00 14,3 12,5 18 10 25 14 S 1004,6 20
20.10.2020 20:00:00 14,2 12,4 22 12 32 18 S 1004,8 20
20.10.2020 19:00:00 14,5 12,3 22 12 - - S 1004,8 20
20.10.2020 18:00:00 14,8 12,0 18 10 29 16 S 1005,0 20
20.10.2020 17:00:00 14,8 11,8 18 10 40 21 S 1005,1 20
20.10.2020 16:00:00 15,0 11,6 25 14 - - S 1005,2 20
20.10.2020 15:00:00 14,5 11,5 18 10 29 16 SSW 1005,8 18
20.10.2020 14:00:00 14,1 11,4 25 14 32 18 S 1005,6 18
20.10.2020 13:00:00 14,3 11,2 25 14 - - S 1005,8 20
20.10.2020 12:00:00 14,1 10,9 18 10 36 19 S 1006,1 19
20.10.2020 11:00:00 13,6 10,3 22 12 32 18 S 1005,7 19

tt = temperature
td = dewpoint
ff = wind speed
fx = gusts
dd = wind direction
ppp = reduced air pressure
vv = visibility

Next stations